[Date Prev][Date Next][Thread Prev][Thread Next] - [Date Index][Thread Index][Author Index]
2 Line ISS Keps 10-3
- Subject: [sarex] 2 Line ISS Keps 10-3
- From: "Dave Larsen PhD" <doc@xxxxxxxxxxx>
- Date: Mon, 2 Oct 2006 20:05:08 -0700
ISS
1 25544U 98067A 06275.48181713 .00021761 00000-0 13733-3 0 7842
2 25544 051.6376 354.7407 0012860 050.9711 139.6455 15.76471503450089
----
Sent via sarex@amsat.org. Opinions expressed are those of the author.
Not an AMSAT member? Join now to support the amateur satellite program!
Subscription settings: http://amsat.org/mailman/listinfo/sarex
AMSAT Home